2023/06/04 00:00:00, 0.2,11.6
2023/06/04 00:10:00, 0.3,11.5
2023/06/04 00:20:00, 0.3,11.3
2023/06/04 00:30:00, 0.2,11.3
2023/06/04 00:40:00, 0.2,11.1
2023/06/04 00:50:00, 0.2,11.0
2023/06/04 01:00:00, 0.2,11.1
2023/06/04 01:10:00, 0.2,11.0
2023/06/04 01:20:00, 0.2,10.8
2023/06/04 01:30:00, 0.2,10.8
2023/06/04 01:40:00, 0.2,10.7
2023/06/04 01:50:00, 0.2,10.8
2023/06/04 02:00:00, 0.2,10.6
2023/06/04 02:10:00, 0.2,10.6
2023/06/04 02:20:00, 0.3,10.2
2023/06/04 02:30:00, 0.3,10.4
2023/06/04 02:40:00, 0.3,10.6
2023/06/04 02:50:00, 0.3,10.5
2023/06/04 03:00:00, 0.3,10.4
2023/06/04 03:10:00, 0.2,10.4
2023/06/04 03:20:00, 0.2,10.0
2023/06/04 03:30:00, 0.2,10.3
2023/06/04 03:40:00, 0.2,10.0
2023/06/04 03:50:00, 0.2,10.0
2023/06/04 04:00:00, 0.2,10.0
2023/06/04 04:10:00, 0.2,10.2
2023/06/04 04:20:00, 0.2,10.2
2023/06/04 04:30:00, 0.2,10.0
2023/06/04 04:40:00, 0.2, 9.9
2023/06/04 04:50:00, 0.2,10.0
2023/06/04 05:00:00, 0.2,10.0
2023/06/04 05:10:00, 0.2, 9.9
2023/06/04 05:20:00, 0.2, 9.7
2023/06/04 05:30:00, 0.2,10.2
2023/06/04 05:40:00, 0.2,10.4
2023/06/04 05:50:00, 0.2,10.5
2023/06/04 06:00:00, 0.2,10.9
2023/06/04 06:10:00, 0.2,13.6
2023/06/04 06:20:00, 0.1,18.4
2023/06/04 06:30:00, 0.2,21.2
2023/06/04 06:40:00, 0.0,25.4
2023/06/04 06:50:00, 0.1,25.6
2023/06/04 07:00:00, 0.0,26.2
2023/06/04 07:10:00, 0.0,24.3
2023/06/04 07:20:00, 0.0,22.5
2023/06/04 07:30:00, 0.0,20.4
2023/06/04 07:40:00, 0.0,19.9
2023/06/04 07:50:00, 0.0,19.7
2023/06/04 08:00:00, 0.0,18.6
2023/06/04 08:10:00, 0.0,20.0
2023/06/04 08:20:00, 0.0,19.4
2023/06/04 08:30:00, 0.0,20.7
2023/06/04 08:40:00, 0.0,20.8
2023/06/04 08:50:00, 0.0,21.2
2023/06/04 09:00:00, 0.0,21.7
2023/06/04 09:10:00, 0.0,22.0
2023/06/04 09:20:00, 0.0,22.4
2023/06/04 09:30:00, 0.1,22.7
2023/06/04 09:40:00, 0.1,22.4
2023/06/04 09:50:00, 0.1,22.7
2023/06/04 10:00:00, 0.0,23.3
2023/06/04 10:10:00, 0.1,23.2
2023/06/04 10:20:00, 0.1,22.7
2023/06/04 10:30:00, 0.1,22.3
2023/06/04 10:40:00, 0.1,22.2
2023/06/04 10:50:00, 0.0,22.8
2023/06/04 11:00:00, 0.0,23.5
2023/06/04 11:10:00, 0.0,24.6
2023/06/04 11:20:00, 0.1,23.8
2023/06/04 11:30:00, 0.1,24.2
2023/06/04 11:40:00, 0.0,24.9
2023/06/04 11:50:00, 0.0,24.6
2023/06/04 12:00:00, 0.0,25.5
2023/06/04 12:10:00, 0.0,25.0
2023/06/04 12:20:00, 0.0,25.6
2023/06/04 12:30:00, 0.0,25.6
2023/06/04 12:40:00, 0.0,25.2
2023/06/04 12:50:00, 0.0,25.7
2023/06/04 13:00:00, 0.0,27.4
2023/06/04 13:10:00, 0.0,27.6
2023/06/04 13:20:00, 0.0,27.2
2023/06/04 13:30:00, 0.0,27.7
2023/06/04 13:40:00, 0.0,28.0
2023/06/04 13:50:00, 0.0,29.0
2023/06/04 14:00:00, 0.0,29.2
2023/06/04 14:10:00, 0.0,28.5
2023/06/04 14:20:00, 0.0,26.9
2023/06/04 14:30:00, 0.0,28.0
2023/06/04 14:40:00, 0.0,27.6
2023/06/04 14:50:00, 0.0,26.8
2023/06/04 15:00:00, 0.0,26.1
2023/06/04 15:10:00, 0.0,25.8
2023/06/04 15:20:00, 0.0,24.8
2023/06/04 15:30:00, 0.0,24.7
2023/06/04 15:40:00, 0.1,24.2
2023/06/04 15:50:00, 0.1,23.8
2023/06/04 16:00:00, 0.1,23.9
2023/06/04 16:10:00, 0.1,23.3
2023/06/04 16:20:00, 0.1,23.4
2023/06/04 16:30:00, 0.1,23.6
2023/06/04 16:40:00, 0.2,23.0
2023/06/04 16:50:00, 0.2,23.2
2023/06/04 17:00:00, 0.2,23.0
2023/06/04 17:10:00, 0.2,23.5
2023/06/04 17:20:00, 0.2,22.9
2023/06/04 17:30:00, 0.2,22.2
2023/06/04 17:40:00, 0.2,22.2
2023/06/04 17:50:00, 0.2,21.9
2023/06/04 18:00:00, 0.1,22.0
2023/06/04 18:10:00, 0.2,21.5
2023/06/04 18:20:00, 0.2,21.4
2023/06/04 18:30:00, 0.1,21.1
2023/06/04 18:40:00, 0.2,20.9
2023/06/04 18:50:00, 0.2,20.6
2023/06/04 19:00:00, 0.1,20.4
2023/06/04 19:10:00, 0.1,20.4
2023/06/04 19:20:00, 0.1,19.6
2023/06/04 19:30:00, 0.2,19.7
2023/06/04 19:40:00, 0.2,19.4
2023/06/04 19:50:00, 0.2,19.3
2023/06/04 20:00:00, 0.2,19.1
2023/06/04 20:10:00, 0.2,18.9
2023/06/04 20:20:00, 0.2,18.5
2023/06/04 20:30:00, 0.2,18.1
2023/06/04 20:40:00, 0.2,18.0
2023/06/04 20:50:00, 0.2,17.7
2023/06/04 21:00:00, 0.2,17.4
2023/06/04 21:10:00, 0.2,17.2
2023/06/04 21:20:00, 0.3,17.3
2023/06/04 21:30:00, 0.3,17.3
2023/06/04 21:40:00, 0.3,17.1
2023/06/04 21:50:00, 0.2,17.1
2023/06/04 22:00:00, 0.2,16.8
2023/06/04 22:10:00, 0.2,16.7
2023/06/04 22:20:00, 0.2,16.7
2023/06/04 22:30:00, 0.2,16.5
2023/06/04 22:40:00, 0.2,16.4
2023/06/04 22:50:00, 0.2,16.1
2023/06/04 23:00:00, 0.2,15.9
2023/06/04 23:10:00, 0.2,16.0
2023/06/04 23:20:00, 0.2,15.6
2023/06/04 23:30:00, 0.2,15.5
2023/06/04 23:40:00, 0.1,15.4
2023/06/04 23:50:00, 0.2,15.0
